Voltar ao catálogo

FENGYUN 1C DEB

AtivoPO
NORAD 30694·DEBRIS·🇨🇳 China

Lançado May 10, 1999 de Taiyuan Satellite Launch Center

Loading…

Próximas Passagens (próximas 24 horas)

TLE

AtualizadoSource: Space-Track

Época: Sep 12, 2026, 23:50 UTC

1 30694U 99025ARC 26255.99317825  .00003419  00000-0  30377-3 0  9991
2 30694  99.0639 266.7479 0121416 139.4320 221.6022 14.91471995 41783

Acompanhe FENGYUN 1C DEB em tempo real com AllMySat

Download on the App Store